TimeEDT,TemperatureF,Dew PointF,Humidity,Sea Level PressureIn,VisibilityMPH,Wind Direction,Wind SpeedMPH,Gust SpeedMPH,PrecipitationIn,Events,Conditions,WindDirDegrees,DateUTC
12:15 AM,60.8,57.2,88,29.94,3.0,WSW,5.8,-,N/A,,Partly Cloudy,250,2013-08-02 04:15:00
12:35 AM,60.8,59.0,94,29.94,4.0,West,6.9,-,N/A,,Clear,260,2013-08-02 04:35:00
12:55 AM,60.8,57.2,88,29.94,2.5,WSW,5.8,-,N/A,,Clear,250,2013-08-02 04:55:00
1:15 AM,60.8,57.2,88,29.94,1.2,SW,5.8,-,N/A,,Overcast,230,2013-08-02 05:15:00
1:35 AM,60.8,59.0,94,29.93,1.5,SW,5.8,-,N/A,,Overcast,230,2013-08-02 05:35:00
1:55 AM,60.8,59.0,94,29.93,3.0,West,4.6,-,N/A,,Scattered Clouds,270,2013-08-02 05:55:00
2:15 AM,60.8,57.2,88,29.93,0.5,Calm,Calm,-,N/A,,Unknown,0,2013-08-02 06:15:00
2:35 AM,57.2,55.4,94,29.92,0.2,South,3.5,-,N/A,,Overcast,180,2013-08-02 06:35:00
2:55 AM,57.2,55.4,94,29.91,0.8,South,4.6,-,N/A,,Overcast,180,2013-08-02 06:55:00
3:15 AM,57.2,55.4,94,29.92,1.5,South,3.5,-,N/A,,Overcast,180,2013-08-02 07:15:00
3:35 AM,57.2,55.4,94,29.92,0.5,South,3.5,-,N/A,,Overcast,190,2013-08-02 07:35:00
3:55 AM,59.0,57.2,94,29.92,0.2,SSW,3.5,-,N/A,,Overcast,210,2013-08-02 07:55:00
4:15 AM,59.0,57.2,94,29.92,0.2,SSW,6.9,-,N/A,,Overcast,210,2013-08-02 08:15:00
4:35 AM,59.0,57.2,94,29.91,0.2,South,3.5,-,N/A,,Overcast,190,2013-08-02 08:35:00
4:55 AM,59.0,57.2,94,29.91,0.2,South,5.8,-,N/A,,Overcast,190,2013-08-02 08:55:00
5:15 AM,59.0,57.2,94,29.91,0.2,South,5.8,-,N/A,,Overcast,170,2013-08-02 09:15:00
5:35 AM,57.2,57.2,100,29.92,0.2,South,4.6,-,N/A,,Overcast,170,2013-08-02 09:35:00
5:55 AM,59.0,57.2,94,29.93,0.2,South,4.6,-,N/A,,Overcast,190,2013-08-02 09:55:00
6:15 AM,59.0,57.2,94,29.93,0.2,South,3.5,-,N/A,,Overcast,190,2013-08-02 10:15:00
6:35 AM,60.8,57.2,88,29.94,0.2,SSW,5.8,-,N/A,,Overcast,200,2013-08-02 10:35:00
6:55 AM,60.8,57.2,88,29.94,0.2,SSW,6.9,-,N/A,,Overcast,210,2013-08-02 10:55:00
7:15 AM,60.8,59.0,94,29.95,1.8,SW,9.2,-,N/A,,Overcast,220,2013-08-02 11:15:00
7:35 AM,60.8,59.0,94,29.95,2.5,SSW,5.8,-,N/A,,Overcast,210,2013-08-02 11:35:00
7:55 AM,60.8,59.0,94,29.95,2.5,SW,6.9,-,N/A,,Overcast,220,2013-08-02 11:55:00
8:15 AM,60.8,59.0,94,29.96,3.0,SW,6.9,-,N/A,,Overcast,220,2013-08-02 12:15:00
8:35 AM,60.8,60.8,100,29.96,2.5,SSW,5.8,-,N/A,,Overcast,210,2013-08-02 12:35:00
8:55 AM,62.6,60.8,94,29.95,3.0,SSW,5.8,-,N/A,,Overcast,210,2013-08-02 12:55:00
9:15 AM,62.6,60.8,94,29.95,5.0,SSW,6.9,-,N/A,,Mostly Cloudy,210,2013-08-02 13:15:00
9:35 AM,62.6,60.8,94,29.94,10.0,SW,8.1,-,N/A,,Scattered Clouds,220,2013-08-02 13:35:00
9:55 AM,64.4,60.8,88,29.95,10.0,SW,10.4,-,N/A,,Partly Cloudy,230,2013-08-02 13:55:00
10:15 AM,64.4,59.0,83,29.95,10.0,SW,10.4,-,N/A,,Scattered Clouds,230,2013-08-02 14:15:00
10:35 AM,64.4,59.0,83,29.94,10.0,SW,8.1,-,N/A,,Scattered Clouds,220,2013-08-02 14:35:00
10:55 AM,66.2,59.0,78,29.95,10.0,SW,9.2,-,N/A,,Mostly Cloudy,220,2013-08-02 14:55:00
11:15 AM,66.2,57.2,73,29.94,10.0,WSW,9.2,16.1,N/A,,Mostly Cloudy,240,2013-08-02 15:15:00
11:35 AM,66.2,55.4,68,29.96,10.0,WSW,12.7,17.3,N/A,,Overcast,250,2013-08-02 15:35:00
11:55 AM,66.2,55.4,68,29.95,10.0,West,8.1,-,N/A,,Mostly Cloudy,260,2013-08-02 15:55:00
12:15 PM,68.0,55.4,64,29.95,10.0,WSW,10.4,-,N/A,,Scattered Clouds,250,2013-08-02 16:15:00
12:35 PM,69.8,55.4,60,29.95,10.0,West,16.1,20.7,N/A,,Scattered Clouds,270,2013-08-02 16:35:00
12:55 PM,69.8,55.4,60,29.95,10.0,WNW,12.7,19.6,N/A,,Mostly Cloudy,290,2013-08-02 16:55:00
1:15 PM,69.8,55.4,60,29.96,10.0,West,13.8,-,N/A,,Mostly Cloudy,260,2013-08-02 17:15:00
1:35 PM,69.8,53.6,56,29.95,10.0,WSW,15.0,20.7,N/A,,Partly Cloudy,240,2013-08-02 17:35:00
1:55 PM,71.6,55.4,57,29.95,10.0,West,12.7,23.0,N/A,,Scattered Clouds,280,2013-08-02 17:55:00
2:15 PM,71.6,53.6,53,29.95,10.0,WSW,11.5,-,N/A,,Scattered Clouds,240,2013-08-02 18:15:00
2:35 PM,71.6,55.4,57,29.96,10.0,West,11.5,23.0,N/A,,Mostly Cloudy,270,2013-08-02 18:35:00
2:55 PM,71.6,53.6,53,29.96,10.0,WSW,15.0,19.6,N/A,,Partly Cloudy,240,2013-08-02 18:55:00
3:15 PM,71.6,53.6,53,29.95,10.0,SW,11.5,-,N/A,,Scattered Clouds,230,2013-08-02 19:15:00
3:35 PM,71.6,53.6,53,29.94,10.0,WSW,13.8,-,N/A,,Scattered Clouds,240,2013-08-02 19:35:00
3:55 PM,71.6,53.6,53,29.94,10.0,SSW,11.5,19.6,N/A,,Partly Cloudy,210,2013-08-02 19:55:00
4:15 PM,71.6,53.6,53,29.93,10.0,SW,15.0,19.6,N/A,,Scattered Clouds,230,2013-08-02 20:15:00
4:35 PM,69.8,53.6,56,29.94,10.0,SW,11.5,20.7,N/A,,Mostly Cloudy,220,2013-08-02 20:35:00
4:55 PM,69.8,53.6,56,29.94,10.0,SW,13.8,19.6,N/A,,Mostly Cloudy,220,2013-08-02 20:55:00
5:15 PM,69.8,53.6,56,29.94,10.0,SW,12.7,19.6,N/A,,Mostly Cloudy,220,2013-08-02 21:15:00
5:35 PM,71.6,53.6,53,29.94,10.0,SW,11.5,-,N/A,,Scattered Clouds,220,2013-08-02 21:35:00
5:55 PM,69.8,53.6,56,29.93,10.0,SW,13.8,18.4,N/A,,Mostly Cloudy,230,2013-08-02 21:55:00
6:15 PM,68.0,53.6,60,29.92,10.0,SSW,8.1,19.6,N/A,,Mostly Cloudy,210,2013-08-02 22:15:00
6:35 PM,68.0,55.4,64,29.92,10.0,SW,12.7,-,N/A,,Overcast,230,2013-08-02 22:35:00
6:55 PM,68.0,53.6,60,29.92,10.0,SW,10.4,-,N/A,,Overcast,220,2013-08-02 22:55:00
7:15 PM,66.2,53.6,64,29.92,10.0,SSW,8.1,-,N/A,,Overcast,210,2013-08-02 23:15:00
7:35 PM,66.2,53.6,64,29.93,10.0,SSW,11.5,17.3,N/A,,Overcast,210,2013-08-02 23:35:00
7:55 PM,66.2,53.6,64,29.93,10.0,SSW,9.2,16.1,N/A,,Mostly Cloudy,200,2013-08-02 23:55:00
8:15 PM,64.4,53.6,68,29.92,10.0,SSW,9.2,16.1,N/A,,Overcast,200,2013-08-03 00:15:00
8:35 PM,64.4,53.6,68,29.93,10.0,SSW,6.9,-,N/A,,Overcast,210,2013-08-03 00:35:00
8:55 PM,64.4,55.4,73,29.92,10.0,SSW,6.9,-,N/A,,Overcast,200,2013-08-03 00:55:00
9:15 PM,64.4,53.6,68,29.92,10.0,SSW,9.2,-,N/A,,Overcast,200,2013-08-03 01:15:00
9:35 PM,62.6,53.6,72,29.92,10.0,SSW,5.8,-,N/A,,Overcast,200,2013-08-03 01:35:00
9:55 PM,62.6,55.4,77,29.92,10.0,South,8.1,-,N/A,,Mostly Cloudy,190,2013-08-03 01:55:00
10:15 PM,62.6,53.6,72,29.91,10.0,SSW,8.1,-,N/A,,Mostly Cloudy,200,2013-08-03 02:15:00
10:35 PM,62.6,53.6,72,29.92,10.0,SSW,8.1,-,N/A,,Mostly Cloudy,200,2013-08-03 02:35:00
10:55 PM,64.4,53.6,68,29.93,10.0,SSW,8.1,-,N/A,,Mostly Cloudy,210,2013-08-03 02:55:00
11:15 PM,64.4,55.4,73,29.93,10.0,SW,11.5,16.1,N/A,,Overcast,220,2013-08-03 03:15:00
11:35 PM,64.4,55.4,73,29.93,10.0,SW,9.2,-,N/A,,Overcast,220,2013-08-03 03:35:00
11:55 PM,62.6,55.4,77,29.92,10.0,SW,11.5,-,N/A,,Mostly Cloudy,220,2013-08-03 03:55:00